Location: Bruneau Dunes Observatory
(42.9024°N, 115.6902°W)
Time: 13:50:16
(UTC-06:00)

Daily predictions for brighter satellites

Satellite Brightness Start Highest point End
(mag) Time Altitude Azimuth Time Altitude Azimuth Time Altitude Azimuth
Cosmos 1140 Rocket 4.3 21:30:01 10° N 21:34:45 35° ENE 21:39:28 10° SE
Cosmos 407 Rocket 3.6 21:29:27 10° NNW 21:34:46 89° ENE 21:40:06 10° SSE
ISS -3.4 21:34:09 10° SW 21:37:22 66° SE 21:40:37 10° ENE
Cosmos 1378 Rocket 4.0 21:36:29 10° N 21:40:38 43° ENE 21:44:45 10° SSE
Meteor 1-10 Rocket 4.5 21:35:59 10° NNW 21:41:49 79° W 21:47:29 10° S
Cosmos 1606 2.9 21:38:10 10° N 21:42:03 55° E 21:45:54 10° SSE
Cosmos 1733 Rocket 3.4 21:37:47 10° SSW 21:42:10 70° W 21:46:33 10° N
Cosmos 1908 Rocket 3.8 21:37:55 10° S 21:42:12 51° E 21:46:31 10° NNE
Cosmos 1862 3.6 21:43:48 10° SSE 21:47:43 48° E 21:51:40 10° NNE
Cosmos 1892 4.3 21:44:36 10° SSW 21:48:14 40° WNW 21:51:55 10° N
Cosmos 1452 Rocket 3.5 21:44:40 10° S 21:49:53 71° ESE 21:55:10 10° NNE
Cosmos 1184 Rocket 3.5 21:48:08 10° SSE 21:51:11 34° E 21:54:15 10° NNE
Cosmos 1238 Rocket 3.0 21:48:48 10° N 21:52:03 44° E 21:55:51 10° SSE
EO 1 Delta rocket 4.4 21:47:00 10° NNE 21:52:47 49° E 21:57:33 10° SSE
H-2A R/B 4.1 21:53:17 10° E 21:55:41 13° ENE 21:58:04 10° NNE
Abrixas 4.3 21:54:03 10° S 21:55:52 15° SE 21:57:04 12° ESE
deb Chang Zheng 4 3.9 21:52:59 10° NNE 21:57:17 49° E 22:01:35 10° S
SPOT 5 3.5 21:53:35 10° SE 21:58:39 47° ENE 22:03:47 10° N
Cosmos 2341 Rocket 4.1 21:52:42 10° S 21:58:50 57° E 22:04:58 10° NNE
Cosmos 1242 Rocket 3.3 21:59:18 10° N 22:02:45 37° ENE 22:05:37 14° SE
Meteor 1-27 Rocket 3.8 22:02:02 10° NNW 22:07:37 80° W 22:13:07 10° S
YAOGAN 6 3.5 22:07:53 15° SE 22:10:12 31° ENE 22:13:22 10° N
Cosmos 1782 4.3 22:06:56 10° NNW 22:10:41 37° W 22:14:26 10° SSW
SPOT 1/Viking Rocket 4.4 22:06:51 13° SE 22:10:52 35° ENE 22:15:33 10° N
H-2A R/B 2.0 22:07:04 10° SSE 22:11:21 80° ENE 22:15:34 10° NNW
Cosmos 1408 2.5 22:08:48 10° S 22:12:27 84° E 22:16:07 10° N
ARGOS 4.1 22:09:19 14° SE 22:13:17 33° ENE 22:18:02 10° N
ATLAS 5 CENTAUR R/B 4.5 22:09:23 10° WNW 22:13:55 22° WSW 22:18:37 10° SSW
Timation 2 Rocket 3.9 22:08:00 10° NNW 22:14:01 72° ENE 22:19:07 15° SE
COS B Rocket 3.2 22:13:41 10° N 22:17:41 86° W 22:21:13 10° S
Cosmos 1850 Rocket 4.1 22:15:39 10° NNW 22:20:58 67° ENE 22:25:08 17° SSE
Cosmos 2154 Rocket 4.2 22:15:53 10° SSW 22:22:05 76° W 22:28:18 10° N
Okean 3 3.5 22:18:05 10° N 22:22:23 83° W 22:26:32 10° S
BREEZE-M DEB (TANK) 4.0 22:22:35 10° W 22:25:16 45° N 22:31:51 10° ENE
BREEZE-M DEB (TANK) 3.7 22:10:41 10° WNW 22:25:17 88° SW 22:28:16 20° ESE
GPS 2-05 Rocket1 4.2 22:26:11 10° WSW 22:29:18 26° S 22:30:20 22° SSE
Cosmos 1825 2.8 22:26:31 10° SSW 22:30:16 56° W 22:34:03 10° N
Cosmos 1939 Rocket 3.8 22:28:22 10° S 22:32:05 44° W 22:35:54 10° NNW
USA 229 DEB 4.0 22:25:25 10° NNW 22:32:29 65° NE 22:37:41 20° SE
USA 229 4.0 22:25:31 10° NNW 22:32:35 64° NE 22:37:47 20° SE
MetOp-A 4.1 22:33:35 15° SSE 22:38:00 88° ENE 22:43:24 10° NNW
Cosmos 1833 Rocket 3.0 22:34:03 10° NNW 22:39:36 55° ENE 22:42:58 23° SE
Cosmos 1741 Rocket 4.0 22:37:23 10° NNW 22:42:38 83° WSW 22:46:14 21° SSE
PSLV R/B 3.2 22:43:22 28° S 22:44:43 68° W 22:47:40 10° NNW
Cosmos 2278 Rocket 3.1 22:40:55 10° SW 22:46:27 53° WNW 22:52:02 10° NNE
Cosmos 2366 rocket 4.1 22:41:56 16° SSE 22:46:58 58° E 22:53:11 10° NNE
Okean 2 Rocket 3.5 22:43:36 10° SSW 22:47:58 63° W 22:52:21 10° N
CZ-4 SHROUD 3.4 22:47:00 29° S 22:48:25 66° WSW 22:51:31 10° NNW
CZ-4 R/B 4.2 22:44:13 10° NNE 22:48:39 42° E 22:50:35 28° SSE
Cosmos 1110 Rocket 4.3 22:53:35 25° SSE 22:56:10 44° ESE 23:01:07 10° NNE
Envisat 4.3 22:53:01 10° SSW 22:57:40 36° W 23:02:22 10° NNW
Cosmos 614 Rocket 4.3 22:56:43 10° NNW 23:01:44 60° WSW 23:04:45 23° S
Cosmos 1812 3.2 22:58:05 10° N 23:01:47 41° ENE 23:02:27 38° ESE
SL-08 RB Rocket 3.7 22:59:45 32° SSE 23:01:51 73° ENE 23:06:31 10° N
UNK 4.5 22:57:16 10° NNE 23:03:29 84° WNW 23:09:23 10° SSW
OAO 3 Rocket 4.0 22:59:10 10° SW 23:03:30 31° S 23:03:43 31° SSE
Landsat 7 4.1 23:02:46 33° SE 23:04:36 54° ENE 23:09:15 10° N
Cosmos 2082 Rocket 2.3 22:59:53 10° NNW 23:05:35 75° WSW 23:08:39 28° SSE
AVUM R/B 3.3 23:03:40 10° NNW 23:07:12 82° ENE 23:07:46 59° SE
CARTOSAT-1 4.1 23:09:54 36° ESE 23:10:55 43° ENE 23:15:01 10° N
Meteor 1-18 Rocket 4.3 23:07:03 10° N 23:13:00 87° E 23:16:07 30° S
ISS -1.0 23:11:13 10° WNW 23:14:02 26° NNW 23:16:50 10° NE
Cosmos 2218 Rocket 4.2 23:11:24 11° SSW 23:17:33 74° W 23:23:58 10° N
NOSS 3-1 (C) 4.4 23:12:27 10° NNW 23:19:46 56° NE 23:24:23 26° ESE
Terra 2.1 23:19:00 41° ESE 23:20:18 54° ENE 23:24:58 10° N
Meteor 2-19 Rocket 4.4 23:17:10 26° S 23:20:48 78° E 23:26:54 10° N
Cosmos 1536 Rocket 3.7 23:17:43 10° NNW 23:22:12 71° W 23:23:51 38° S
Cosmos 1486 Rocket 4.3 23:18:08 10° NNW 23:23:24 54° ENE 23:25:00 39° ESE
DELTA 2 DEB (DPAF) 4.0 23:23:15 48° SSE 23:24:28 82° ENE 23:28:58 10° NNW
CZ-4B R/B 3.8 23:20:38 10° N 23:25:31 63° WNW 23:29:10 17° SSW
USA 234 3.6 23:24:11 10° ENE 23:30:12 38° SE 23:31:10 36° SSE
Cosmos 1727 Rocket 4.1 23:24:05 10° NNW 23:30:15 74° W 23:33:31 29° S
Lacrosse 5 rocket 2.4 23:33:05 29° ENE 23:33:05 29° ENE 23:35:02 10° NE
H-2A R/B 2.0 23:32:29 43° SSE 23:34:20 87° ENE 23:39:39 10° NNW
IGS 5A 3.3 23:38:16 68° SE 23:38:39 75° ENE 23:42:49 10° N
Spot 4 4.0 23:37:44 51° ESE 23:38:42 63° ENE 23:43:30 10° N
Cosmos 1633 4.5 23:44:00 21° NE 23:44:00 21° NE 23:45:46 10° NNE
Meteor 1-11 Rocket 3.9 23:44:06 47° SE 23:45:17 55° E 23:50:54 10° NNE
CZ-4C R/B 3.9 23:50:24 46° WSW 23:50:52 49° W 23:54:55 10° NNW
Cosmos 1302 Rocket 3.9 23:49:53 57° SSE 23:50:52 71° ESE 23:56:09 10° NNE
Lacrosse 5 1.7 23:49:52 52° SSW 23:51:00 71° SE 23:56:05 10° NE
Cosmos 1025 Rocket 3.5 23:48:12 10° N 23:52:22 47° ENE 23:52:22 47° ENE
Cosmos 2369 Rocket 2.7 23:53:08 39° E 23:53:08 39° E 23:58:02 10° NE
ARGOS 4.4 23:50:51 22° SW 23:53:28 34° W 23:58:18 10° NNW
